| time (UTC) | temp F | wind direction | speed knots | gust knots | rain 1hr in | rain 24hr in | rain mn in | humidity % | barometer mb |
| 20260506135201 | 56 | 173 | 4.3 | 8.7 | 0.12 | 0.12 | 0.12 | 94 | 1001.4 |
| 20260506134701 | 56 | 226 | 4.3 | 8.7 | 0.11 | 0.11 | 0.11 | 94 | 1001.4 |
| 20260506134202 | 56 | 216 | 5.2 | 8.7 | 0.10 | 0.10 | 0.10 | 93 | 1001.5 |
| 20260506133700 | 56 | 233 | 4.3 | 7.8 | 0.09 | 0.09 | 0.09 | 93 | 1001.5 |
| 20260506133201 | 57 | 186 | 5.2 | 9.6 | 0.08 | 0.08 | 0.08 | 93 | 1001.6 |
| 20260506132701 | 57 | 197 | 5.2 | 11.3 | 0.07 | 0.07 | 0.07 | 92 | 1001.7 |
| 20260506132319 | 57 | 203 | 6.1 | 11.3 | 0.05 | 0.05 | 0.04 | 91 | 1001.8 |
| 20260506132251 | 57 | 236 | 5.2 | 11.3 | 0.06 | 0.06 | 0.06 | 92 | 1001.7 |
| 20260506131203 | 57 | 239 | 5.2 | 10.4 | 0.04 | 0.04 | 0.04 | 90 | 1001.8 |
| 20260506130703 | 57 | 229 | 4.3 | 9.6 | 0.03 | 0.03 | 0.03 | 89 | 1001.8 |
| 20260506130202 | 58 | 202 | 4.3 | 8.7 | 0.02 | 0.02 | 0.01 | 87 | 1001.8 |
| 20260506125702 | 58 | 226 | 4.3 | 7.8 | 0.01 | 0.01 | 0.01 | 86 | 1001.7 |
| 20260506125204 | 58 | 229 | 4.3 | 7.8 | 0.00 | 0.00 | 0.00 | 84 | 1001.5 |
| 20260506124703 | 59 | 193 | 4.3 | 7.8 | 0.00 | 0.00 | 0.00 | 82 | 1001.4 |
| 20260506124202 | 59 | 216 | 3.5 | 7.8 | 0.00 | 0.00 | 0.00 | 80 | 1001.3 |
| 20260506123702 | 59 | 220 | 4.3 | 7.0 | 0.00 | 0.00 | 0.00 | 79 | 1001.2 |
| 20260506123203 | 60 | 213 | 4.3 | 8.7 | 0.00 | 0.00 | 0.00 | 78 | 1001.2 |
| 20260506122703 | 60 | 233 | 3.5 | 8.7 | 0.00 | 0.00 | 0.00 | 77 | 1001.2 |
| 20260506122202 | 60 | 221 | 3.5 | 7.8 | 0.00 | 0.00 | 0.00 | 76 | 1001.3 |
| 20260506121703 | 60 | 204 | 4.3 | 8.7 | 0.00 | 0.00 | 0.00 | 75 | 1001.3 |
| 20260506121202 | 60 | 194 | 4.3 | 8.7 | 0.00 | 0.00 | 0.00 | 74 | 1001.3 |
| 20260506120703 | 60 | 206 | 3.5 | 7.0 | 0.00 | 0.00 | 0.00 | 73 | 1001.4 |
| 20260506120202 | 60 | 210 | 2.6 | 7.0 | 0.00 | 0.00 | 0.00 | 72 | 1001.5 |
| 20260506115704 | 60 | 219 | 2.6 | 7.0 | 0.00 | 0.00 | 0.00 | 72 | 1001.4 |
| 20260506115456 | 60 | 210 | 3.5 | 7.0 | 0.00 | 0.00 | 0.00 | 72 | 1001.4 |
| 20260506114704 | 60 | 192 | 4.3 | 7.0 | 0.00 | 0.00 | 0.00 | 72 | 1001.4 |
| 20260506114204 | 60 | 165 | 4.3 | 8.7 | 0.00 | 0.00 | 0.00 | 71 | 1001.4 |
| 20260506113704 | 60 | 220 | 4.3 | 9.6 | 0.00 | 0.00 | 0.00 | 72 | 1001.4 |
| 20260506113204 | 60 | 227 | 3.5 | 9.6 | 0.00 | 0.00 | 0.00 | 71 | 1001.4 |
| 20260506112705 | 60 | 214 | 3.5 | 7.8 | 0.00 | 0.00 | 0.00 | 71 | 1001.3 |
| 20260506112500 | 60 | 178 | 3.5 | 7.0 | 0.00 | 0.00 | 0.00 | 71 | 1001.4 |
| 20260506111703 | 60 | 170 | 2.6 | 6.1 | 0.00 | 0.00 | 0.00 | 71 | 1001.4 |
| 20260506111205 | 60 | 202 | 2.6 | 5.2 | 0.00 | 0.00 | 0.00 | 70 | 1001.5 |
| 20260506110704 | 60 | 203 | 2.6 | 5.2 | 0.00 | 0.00 | 0.00 | 70 | 1001.4 |
| 20260506110203 | 60 | 210 | 2.6 | 4.3 | 0.00 | 0.00 | 0.00 | 70 | 1001.4 |
| 20260506105702 | 60 | 223 | 2.6 | 5.2 | 0.00 | 0.00 | 0.00 | 70 | 1001.4 |
| 20260506105202 | 60 | 240 | 3.5 | 6.1 | 0.00 | 0.00 | 0.00 | 70 | 1001.3 |
| 20260506104702 | 60 | 219 | 2.6 | 6.1 | 0.00 | 0.00 | 0.00 | 70 | 1001.2 |
| 20260506104202 | 60 | 253 | 2.6 | 7.0 | 0.00 | 0.00 | 0.00 | 70 | 1001.0 |
| 20260506104000 | 60 | 238 | 2.6 | 7.0 | 0.00 | 0.00 | 0.00 | 69 | 1001.1 |
| 20260506103500 | 60 | 223 | 1.7 | 4.3 | 0.00 | 0.00 | 0.00 | 70 | 1001.0 |
| 20260506102703 | 60 | 209 | 2.6 | 6.1 | 0.00 | 0.00 | 0.00 | 69 | 1001.1 |
| 20260506102202 | 60 | 188 | 1.7 | 6.1 | 0.00 | 0.00 | 0.00 | 68 | 1001.1 |
| 20260506101703 | 60 | 229 | 1.7 | 4.3 | 0.00 | 0.00 | 0.00 | 68 | 1001.0 |
| 20260506101202 | 60 | 213 | 2.6 | 5.2 | 0.00 | 0.00 | 0.00 | 68 | 1000.9 |
| 20260506100959 | 60 | 220 | 2.6 | 6.1 | 0.00 | 0.00 | 0.00 | 68 | 1001.0 |
| 20260506100203 | 60 | 214 | 2.6 | 6.1 | 0.00 | 0.00 | 0.00 | 67 | 1001.1 |
| 20260506095702 | 60 | 213 | 1.7 | 5.2 | 0.00 | 0.00 | 0.00 | 67 | 1001.2 |
| 20260506095203 | 60 | 219 | 1.7 | 4.3 | 0.00 | 0.00 | 0.00 | 66 | 1001.2 |
| 20260506094703 | 60 | 233 | 1.7 | 4.3 | 0.00 | 0.00 | 0.00 | 66 | 1001.2 |
| 20260506094205 | 60 | 150 | 1.7 | 4.3 | 0.00 | 0.00 | 0.00 | 66 | 1001.1 |
| 20260506093701 | 60 | 227 | 1.7 | 4.3 | 0.00 | 0.00 | 0.00 | 65 | 1001.0 |
| 20260506093201 | 60 | 221 | 1.7 | 4.3 | 0.00 | 0.00 | 0.00 | 65 | 1000.9 |
| 20260506092701 | 60 | 227 | 1.7 | 4.3 | 0.00 | 0.00 | 0.00 | 65 | 1000.9 |
| 20260506092201 | 60 | 223 | 1.7 | 6.1 | 0.00 | 0.00 | 0.00 | 65 | 1000.9 |
| 20260506091956 | 60 | 199 | 2.6 | 6.1 | 0.00 | 0.00 | 0.00 | 64 | 1001.0 |
| 20260506091200 | 60 | 233 | 2.6 | 5.2 | 0.00 | 0.00 | 0.00 | 64 | 1001.0 |
| 20260506090701 | 60 | 236 | 2.6 | 5.2 | 0.00 | 0.00 | 0.00 | 64 | 1001.0 |
| 20260506090609 | 60 | 222 | 3.5 | 6.1 | 0.00 | 0.00 | 0.00 | 63 | 1001.2 |
| 20260506090248 | 60 | 238 | 3.5 | 5.2 | 0.00 | 0.00 | 0.00 | 64 | 1001.1 |
| 20260506085506 | 60 | 230 | 2.6 | 6.1 | 0.00 | 0.00 | 0.00 | 64 | 1001.3 |
| 20260506084703 | 60 | 202 | 2.6 | 6.1 | 0.00 | 0.00 | 0.00 | 65 | 1001.3 |
| 20260506084201 | 60 | 231 | 2.6 | 7.0 | 0.00 | 0.00 | 0.00 | 65 | 1001.5 |
| 20260506083701 | 60 | 231 | 3.5 | 7.0 | 0.00 | 0.00 | 0.00 | 65 | 1001.4 |
| 20260506083203 | 60 | 233 | 3.5 | 6.1 | 0.00 | 0.00 | 0.00 | 65 | 1001.4 |
| 20260506082704 | 59 | 227 | 2.6 | 5.2 | 0.00 | 0.00 | 0.00 | 66 | 1001.4 |
| 20260506082204 | 59 | 195 | 1.7 | 4.3 | 0.00 | 0.00 | 0.00 | 65 | 1001.1 |
| 20260506081704 | 59 | 215 | 1.7 | 3.5 | 0.00 | 0.00 | 0.00 | 67 | 1001.2 |
| 20260506081500 | 59 | 231 | 1.7 | 3.5 | 0.00 | 0.00 | 0.00 | 67 | 1001.1 |
| 20260506080701 | 59 | 262 | 1.7 | 3.5 | 0.00 | 0.00 | 0.00 | 66 | 1001.1 |
| 20260506080201 | 59 | 222 | 1.7 | 3.5 | 0.00 | 0.00 | 0.00 | 66 | 1001.0 |
| 20260506073201 | 59 | 300 | 1.7 | 3.5 | 0.00 | 0.00 | 0.00 | 68 | 1001.4 |
| 20260506072701 | 59 | 288 | 1.7 | 4.3 | 0.00 | 0.00 | 0.00 | 66 | 1001.4 |
| 20260506072201 | 59 | 201 | 1.7 | 4.3 | 0.00 | 0.00 | 0.00 | 67 | 1001.4 |
| 20260506071701 | 59 | 269 | 1.7 | 4.3 | 0.00 | 0.00 | 0.00 | 67 | 1001.5 |
| 20260506071200 | 59 | 226 | 1.7 | 4.3 | 0.00 | 0.00 | 0.00 | 67 | 1001.5 |
| 20260506070700 | 59 | 233 | 1.7 | 3.5 | 0.00 | 0.00 | 0.00 | 68 | 1001.6 |
| 20260506070203 | 58 | 220 | 1.7 | 3.5 | 0.00 | 0.00 | 0.00 | 68 | 1001.6 |
| 20260506062200 | 59 | 223 | 1.7 | 3.5 | 0.00 | 0.00 | 0.00 | 69 | 1001.9 |
| 20260506061701 | 58 | 216 | 1.7 | 4.3 | 0.00 | 0.00 | 0.00 | 68 | 1001.9 |
| 20260506061201 | 59 | 227 | 1.7 | 4.3 | 0.00 | 0.00 | 0.00 | 69 | 1002.0 |
| 20260506060701 | 59 | 233 | 1.7 | 3.5 | 0.00 | 0.00 | 0.00 | 69 | 1001.9 |
| 20260506060200 | 59 | 213 | 1.7 | 3.5 | 0.00 | 0.00 | 0.00 | 69 | 1002.0 |
| 20260506051205 | 58 | 253 | 1.7 | 2.6 | 0.00 | 0.00 | 0.00 | 71 | 1002.5 |
| 20260506050705 | 58 | 269 | 1.7 | 2.6 | 0.00 | 0.00 | 0.00 | 72 | 1002.3 |
| 20260506050205 | 58 | 286 | 1.7 | 2.6 | 0.00 | 0.00 | 0.00 | 72 | 1002.3 |
| 20260506044701 | 59 | 250 | 0.9 | 1.7 | 0.00 | 0.00 | 0.00 | 71 | 1002.2 |
| 20260506044202 | 59 | 240 | 1.7 | 3.5 | 0.00 | 0.00 | 0.00 | 71 | 1002.2 |
| 20260506043701 | 59 | 245 | 1.7 | 3.5 | 0.00 | 0.00 | 0.00 | 71 | 1002.5 |
| 20260506043202 | 59 | 269 | 1.7 | 2.6 | 0.00 | 0.00 | 0.00 | 71 | 1002.5 |
| 20260506042701 | 59 | 283 | 1.7 | 2.6 | 0.00 | 0.00 | 0.00 | 70 | 1002.5 |
| 20260506042201 | 60 | 269 | 1.7 | 3.5 | 0.00 | 0.00 | 0.00 | 70 | 1002.6 |
| 20260506041701 | 60 | 269 | 1.7 | 3.5 | 0.00 | 0.00 | 0.00 | 69 | 1002.8 |
| 20260506041458 | 60 | 283 | 1.7 | 2.6 | 0.00 | 0.00 | 0.00 | 69 | 1002.6 |
| 20260506040809 | 61 | 279 | 0.9 | 1.7 | 0.00 | 0.00 | 0.00 | 68 | 1002.8 |
| 20260506040743 | 60 | 276 | 1.7 | 2.6 | 0.00 | 0.00 | 0.00 | 68 | 1002.7 |
| 20260506035950 | 61 | 269 | 0.9 | 2.6 | 0.00 | 0.00 | 0.00 | 67 | 1002.7 |
| 20260506035202 | 61 | 233 | 1.7 | 2.6 | 0.00 | 0.00 | 0.00 | 66 | 1002.7 |
| 20260506034700 | 61 | 253 | 1.7 | 2.6 | 0.00 | 0.00 | 0.00 | 66 | 1002.9 |
| 20260506034201 | 62 | 277 | 1.7 | 4.3 | 0.00 | 0.00 | 0.00 | 66 | 1002.8 |
| 20260506033700 | 62 | 258 | 1.7 | 4.3 | 0.00 | 0.00 | 0.00 | 65 | 1002.7 |
| 20260506033210 | 62 | 240 | 1.7 | 4.3 | 0.00 | 0.00 | 0.00 | 64 | 1002.6 |
| 20260506033202 | 62 | 257 | 1.7 | 4.3 | 0.00 | 0.00 | 0.00 | 65 | 1002.8 |
| 20260506033157 | 63 | 201 | 1.7 | 3.5 | 0.00 | 0.00 | 0.00 | 64 | 1002.6 |
| 20260506033150 | 62 | 209 | 1.7 | 4.3 | 0.00 | 0.00 | 0.00 | 64 | 1002.8 |
| 20260506031202 | 63 | 240 | 1.7 | 3.5 | 0.00 | 0.00 | 0.00 | 63 | 1002.7 |
| 20260506030702 | 63 | 257 | 1.7 | 3.5 | 0.00 | 0.00 | 0.00 | 62 | 1002.7 |
| 20260506030157 | 64 | 248 | 1.7 | 3.5 | 0.00 | 0.00 | 0.00 | 62 | 1002.6 |
| 20260506025652 | 64 | 245 | 1.7 | 3.5 | 0.00 | 0.00 | 0.00 | 61 | 1002.6 |
| 20260506025145 | 64 | 252 | 1.7 | 3.5 | 0.00 | 0.00 | 0.00 | 61 | 1002.6 |
| 20260506024638 | 65 | 214 | 2.6 | 5.2 | 0.00 | 0.00 | 0.00 | 60 | 1002.6 |
| 20260506024133 | 65 | 238 | 2.6 | 5.2 | 0.00 | 0.00 | 0.00 | 59 | 1002.6 |
| 20260506023629 | 65 | 231 | 1.7 | 4.3 | 0.00 | 0.00 | 0.00 | 59 | 1002.7 |
| 20260506023130 | 66 | 201 | 1.7 | 2.6 | 0.00 | 0.00 | 0.00 | 59 | 1002.7 |
| 20260506022630 | 66 | 236 | 1.7 | 3.5 | 0.00 | 0.00 | 0.00 | 58 | 1002.7 |
| 20260506022130 | 66 | 269 | 2.6 | 5.2 | 0.00 | 0.00 | 0.00 | 58 | 1002.7 |
| 20260506021630 | 67 | 253 | 2.6 | 5.2 | 0.00 | 0.00 | 0.00 | 57 | 1002.6 |
| 20260506021431 | 67 | 233 | 3.5 | 6.1 | 0.00 | 0.00 | 0.00 | 56 | 1002.7 |
| 20260506020630 | 67 | 213 | 3.5 | 6.1 | 0.00 | 0.00 | 0.00 | 56 | 1002.7 |
| 20260506020131 | 67 | 206 | 1.7 | 5.2 | 0.00 | 0.00 | 0.00 | 56 | 1002.6 |
| 20260506015927 | 67 | 223 | 1.7 | 3.5 | 0.00 | 0.00 | 0.00 | 55 | 1002.7 |
| 20260506015132 | 67 | 208 | 2.6 | 4.3 | 0.00 | 0.00 | 0.00 | 55 | 1002.6 |
| 20260506014629 | 67 | 245 | 1.7 | 4.3 | 0.00 | 0.00 | 0.00 | 55 | 1002.7 |
| 20260506014245 | 68 | 213 | 2.6 | 5.2 | 0.00 | 0.00 | 0.00 | 54 | 1002.7 |
| 20260506014134 | 67 | 220 | 1.7 | 3.5 | 0.00 | 0.00 | 0.00 | 54 | 1002.6 |
| 20260506014006 | 68 | 213 | 2.6 | 5.2 | 0.00 | 0.00 | 0.00 | 54 | 1002.7 |
| 20260506013130 | 68 | 221 | 2.6 | 5.2 | 0.00 | 0.00 | 0.00 | 54 | 1002.5 |
| 20260506012629 | 67 | 170 | 2.6 | 6.1 | 0.00 | 0.00 | 0.00 | 54 | 1002.3 |
| 20260506012130 | 67 | 227 | 2.6 | 6.1 | 0.00 | 0.00 | 0.00 | 54 | 1002.2 |
| 20260506011630 | 68 | 269 | 2.6 | 7.0 | 0.00 | 0.00 | 0.00 | 54 | 1002.1 |
| 20260506011127 | 68 | 226 | 2.6 | 7.0 | 0.00 | 0.00 | 0.00 | 54 | 1002.2 |
| 20260506010621 | 68 | 286 | 3.5 | 7.0 | 0.00 | 0.00 | 0.00 | 54 | 1002.1 |
| 20260506010114 | 68 | 238 | 3.5 | 7.0 | 0.00 | 0.00 | 0.00 | 54 | 1002.1 |
| 20260506005909 | 68 | 231 | 2.6 | 6.1 | 0.00 | 0.00 | 0.00 | 54 | 1002.0 |
| 20260506005109 | 68 | 262 | 2.6 | 5.2 | 0.00 | 0.00 | 0.00 | 54 | 1001.9 |
| 20260506004910 | 68 | 243 | 2.6 | 5.2 | 0.00 | 0.00 | 0.00 | 53 | 1002.0 |
| 20260506004109 | 68 | 226 | 2.6 | 5.2 | 0.00 | 0.00 | 0.00 | 54 | 1002.0 |
| 20260506003610 | 69 | 240 | 2.6 | 7.8 | 0.00 | 0.00 | 0.00 | 54 | 1002.0 |
| 20260506003110 | 69 | 227 | 3.5 | 7.8 | 0.00 | 0.00 | 0.00 | 53 | 1002.0 |
| 20260506002610 | 69 | 240 | 2.6 | 6.1 | 0.00 | 0.00 | 0.00 | 53 | 1002.1 |
| 20260506002110 | 69 | 226 | 3.5 | 6.1 | 0.00 | 0.00 | 0.00 | 53 | 1002.0 |
| 20260506001610 | 69 | 233 | 3.5 | 6.1 | 0.00 | 0.00 | 0.00 | 53 | 1001.9 |
| 20260506001111 | 69 | 245 | 2.6 | 5.2 | 0.00 | 0.00 | 0.00 | 53 | 1002.0 |
| 20260506000611 | 69 | 321 | 2.6 | 8.7 | 0.00 | 0.00 | 0.00 | 52 | 1001.9 |
| 20260506000110 | 69 | 222 | 3.5 | 8.7 | 0.00 | 0.00 | 0.00 | 52 | 1001.9 |
| 20260505235908 | 69 | 262 | 2.6 | 7.0 | 0.00 | 0.00 | 0.00 | 52 | 1001.9 |
| 20260505235111 | 69 | 226 | 2.6 | 6.1 | 0.00 | 0.00 | 0.00 | 52 | 1001.9 |
| 20260505234613 | 69 | 220 | 2.6 | 6.1 | 0.00 | 0.00 | 0.00 | 51 | 1001.9 |
| 20260505234109 | 69 | 236 | 3.5 | 6.1 | 0.00 | 0.00 | 0.00 | 52 | 1001.8 |
| 20260505233612 | 70 | 243 | 3.5 | 8.7 | 0.00 | 0.00 | 0.00 | 51 | 1001.7 |
| 20260505233107 | 70 | 216 | 3.5 | 8.7 | 0.00 | 0.00 | 0.00 | 50 | 1001.8 |
| 20260505232604 | 70 | 238 | 2.6 | 6.1 | 0.00 | 0.00 | 0.00 | 51 | 1001.7 |
| 20260505232104 | 70 | 197 | 2.6 | 6.1 | 0.00 | 0.00 | 0.00 | 50 | 1001.6 |
| 20260505231604 | 70 | 250 | 2.6 | 6.1 | 0.00 | 0.00 | 0.00 | 50 | 1001.7 |
| 20260505231103 | 70 | 274 | 3.5 | 6.1 | 0.00 | 0.00 | 0.00 | 49 | 1001.7 |
| 20260505230605 | 71 | 259 | 3.5 | 7.0 | 0.00 | 0.00 | 0.00 | 49 | 1001.6 |
| 20260505230112 | 71 | 293 | 2.6 | 7.0 | 0.00 | 0.00 | 0.00 | 48 | 1001.6 |
| 20260505225604 | 71 | 274 | 2.6 | 6.1 | 0.00 | 0.00 | 0.00 | 48 | 1001.5 |
| 20260505225102 | 71 | 217 | 3.5 | 7.0 | 0.00 | 0.00 | 0.00 | 48 | 1001.6 |
| 20260505224601 | 71 | 223 | 4.3 | 7.0 | 0.00 | 0.00 | 0.00 | 49 | 1001.5 |
| 20260505224102 | 71 | 206 | 5.2 | 11.3 | 0.00 | 0.00 | 0.00 | 47 | 1001.3 |
| 20260505223601 | 71 | 226 | 5.2 | 11.3 | 0.00 | 0.00 | 0.00 | 47 | 1001.2 |
| 20260505223102 | 72 | 233 | 5.2 | 11.3 | 0.00 | 0.00 | 0.00 | 46 | 1001.1 |
| 20260505222602 | 72 | 200 | 7.0 | 13.0 | 0.00 | 0.00 | 0.00 | 46 | 1001.2 |
| 20260505222400 | 72 | 224 | 7.0 | 13.9 | 0.00 | 0.00 | 0.00 | 46 | 1001.1 |
| 20260505221601 | 72 | 248 | 7.8 | 20.0 | 0.00 | 0.00 | 0.00 | 46 | 1001.1 |
| 20260505221102 | 72 | 234 | 7.8 | 20.0 | 0.00 | 0.00 | 0.00 | 46 | 1001.1 |
| 20260505220602 | 72 | 240 | 6.1 | 17.4 | 0.00 | 0.00 | 0.00 | 46 | 1001.1 |
| 20260505220404 | 72 | 200 | 5.2 | 10.4 | 0.00 | 0.00 | 0.00 | 46 | 1001.1 |
| 20260505215603 | 72 | 221 | 5.2 | 10.4 | 0.00 | 0.00 | 0.00 | 46 | 1000.9 |
| 20260505215103 | 73 | 223 | 5.2 | 10.4 | 0.00 | 0.00 | 0.00 | 46 | 1000.8 |
| 20260505214603 | 73 | 223 | 7.0 | 13.0 | 0.00 | 0.00 | 0.00 | 45 | 1000.9 |
| 20260505214108 | 74 | 201 | 7.0 | 13.9 | 0.00 | 0.00 | 0.00 | 45 | 1000.9 |
| 20260505213601 | 74 | 220 | 6.1 | 13.9 | 0.00 | 0.00 | 0.00 | 44 | 1000.9 |
| 20260505213417 | 74 | 226 | 7.8 | 18.2 | 0.00 | 0.00 | 0.00 | 45 | 1000.9 |
| 20260505212601 | 74 | 231 | 9.6 | 20.0 | 0.00 | 0.00 | 0.00 | 44 | 1001.0 |
| 20260505212104 | 75 | 257 | 9.6 | 20.0 | 0.00 | 0.00 | 0.00 | 43 | 1001.0 |
| 20260505211601 | 75 | 238 | 9.6 | 21.7 | 0.00 | 0.00 | 0.00 | 42 | 1000.9 |
| 20260505211102 | 76 | 223 | 9.6 | 21.7 | 0.00 | 0.00 | 0.00 | 43 | 1000.8 |
| 20260505210601 | 76 | 217 | 8.7 | 18.2 | 0.00 | 0.00 | 0.00 | 40 | 1000.7 |
| 20260505210104 | 76 | 229 | 8.7 | 18.2 | 0.00 | 0.00 | 0.00 | 40 | 1000.5 |
| 20260505205603 | 76 | 241 | 11.3 | 28.7 | 0.00 | 0.00 | 0.00 | 40 | 1000.3 |
| 20260505205104 | 75 | 190 | 13.0 | 28.7 | 0.00 | 0.00 | 0.00 | 40 | 1000.1 |
| 20260505204602 | 75 | 227 | 11.3 | 30.4 | 0.00 | 0.00 | 0.00 | 40 | 1000.2 |
| 20260505204103 | 74 | 191 | 10.4 | 30.4 | 0.00 | 0.00 | 0.00 | 41 | 1000.3 |
| 20260505203605 | 74 | 210 | 9.6 | 20.9 | 0.00 | 0.00 | 0.00 | 41 | 1000.3 |
| 20260505203102 | 73 | 236 | 10.4 | 20.9 | 0.00 | 0.00 | 0.00 | 40 | 1000.3 |
| 20260505202851 | 74 | 219 | 8.7 | 20.0 | 0.00 | 0.00 | 0.00 | 40 | 1000.3 |
| 20260505202102 | 74 | 182 | 7.8 | 20.0 | 0.00 | 0.00 | 0.00 | 40 | 1000.5 |
| 20260505201604 | 74 | 224 | 8.7 | 16.5 | 0.00 | 0.00 | 0.00 | 40 | 1000.5 |
| 20260505201102 | 74 | 231 | 9.6 | 20.0 | 0.00 | 0.00 | 0.00 | 39 | 1000.3 |
| 20260505200601 | 74 | 197 | 10.4 | 20.9 | 0.00 | 0.00 | 0.00 | 39 | 1000.2 |
| 20260505195601 | 75 | 225 | 8.7 | 24.3 | 0.00 | 0.00 | 0.00 | 38 | 1000.2 |
| 20260505195103 | 76 | 243 | 9.6 | 24.3 | 0.00 | 0.00 | 0.00 | 37 | 1000.3 |
| 20260505194602 | 77 | 89 | 11.3 | 23.5 | 0.00 | 0.00 | 0.00 | 37 | 1000.1 |
| 20260505194104 | 76 | 208 | 13.0 | 25.2 | 0.00 | 0.00 | 0.00 | 37 | 1000.2 |
| 20260505193602 | 76 | 215 | 14.8 | 31.3 | 0.00 | 0.00 | 0.00 | 37 | 1000.3 |
| 20260505193102 | 77 | 252 | 10.4 | 31.3 | 0.00 | 0.00 | 0.00 | 36 | 1000.3 |
| 20260505192605 | 77 | 218 | 10.4 | 26.1 | 0.00 | 0.00 | 0.00 | 34 | 1000.3 |
| 20260505192106 | 0 | 0.0 | 0.0 | 0.00 | 0.00 | 0.00 | |||
| 20260505190028 | 75 | 262 | 13.0 | 35.6 | 0.00 | 0.00 | 0.00 | 38 | 1000.8 |
| 20260505185204 | 76 | 212 | 11.3 | 35.6 | 0.00 | 0.00 | 0.00 | 36 | 1000.8 |
| 20260505184702 | 76 | 240 | 10.4 | 25.2 | 0.00 | 0.00 | 0.00 | 38 | 1000.9 |
| 20260505184202 | 76 | 219 | 9.6 | 20.9 | 0.00 | 0.00 | 0.00 | 39 | 1000.9 |
| 20260505183959 | 76 | 152 | 10.4 | 23.5 | 0.00 | 0.00 | 0.00 | 41 | 1001.0 |
| 20260505183202 | 75 | 259 | 11.3 | 25.2 | 0.00 | 0.00 | 0.00 | 40 | 1001.2 |
| 20260505182958 | 75 | 233 | 9.6 | 25.2 | 0.00 | 0.00 | 0.00 | 41 | 1001.2 |
| 20260505182153 | 76 | 183 | 7.8 | 16.5 | 0.00 | 0.00 | 0.00 | 40 | 1001.3 |
| 20260505181647 | 75 | 187 | 7.8 | 15.6 | 0.00 | 0.00 | 0.00 | 43 | 1001.4 |
| 20260505181141 | 74 | 200 | 8.7 | 20.0 | 0.00 | 0.00 | 0.00 | 44 | 1001.6 |
| 20260505180635 | 74 | 243 | 10.4 | 23.5 | 0.00 | 0.00 | 0.00 | 44 | 1001.8 |
| 20260505180135 | 74 | 285 | 11.3 | 23.5 | 0.00 | 0.00 | 0.00 | 45 | 1001.6 |
| 20260505175635 | 74 | 229 | 11.3 | 22.6 | 0.00 | 0.00 | 0.00 | 45 | 1001.9 |
| 20260505175135 | 75 | 201 | 11.3 | 18.2 | 0.00 | 0.00 | 0.00 | 44 | 1001.8 |
| 20260505174937 | 75 | 272 | 11.3 | 21.7 | 0.00 | 0.00 | 0.00 | 45 | 1001.8 |
| 20260505174133 | 75 | 233 | 9.6 | 21.7 | 0.00 | 0.00 | 0.00 | 43 | 1001.7 |
| 20260505173636 | 75 | 222 | 8.7 | 20.9 | 0.00 | 0.00 | 0.00 | 47 | 1001.8 |
| 20260505173135 | 75 | 231 | 9.6 | 20.9 | 0.00 | 0.00 | 0.00 | 45 | 1001.6 |
| 20260505172932 | 75 | 269 | 9.6 | 20.9 | 0.00 | 0.00 | 0.00 | 45 | 1001.6 |
| 20260505172432 | 75 | 233 | 9.6 | 23.5 | 0.00 | 0.00 | 0.00 | 46 | 1001.6 |
| 20260505171635 | 74 | 186 | 10.4 | 23.5 | 0.00 | 0.00 | 0.00 | 46 | 1001.8 |
| 20260505171135 | 74 | 151 | 11.3 | 22.6 | 0.00 | 0.00 | 0.00 | 47 | 1001.6 |
| 20260505170634 | 74 | 218 | 12.2 | 23.5 | 0.00 | 0.00 | 0.00 | 47 | 1001.7 |
| 20260505170135 | 74 | 176 | 10.4 | 23.5 | 0.00 | 0.00 | 0.00 | 48 | 1001.6 |
| 20260505165635 | 74 | 213 | 11.3 | 26.9 | 0.00 | 0.00 | 0.00 | 48 | 1001.7 |
| 20260505165135 | 75 | 229 | 8.7 | 26.9 | 0.00 | 0.00 | 0.00 | 46 | 1001.9 |
| 20260505164634 | 75 | 238 | 7.8 | 20.0 | 0.00 | 0.00 | 0.00 | 48 | 1002.0 |
| 20260505164132 | 74 | 250 | 8.7 | 20.0 | 0.00 | 0.00 | 0.00 | 49 | 1002.0 |
| 20260505163633 | 74 | 255 | 9.6 | 21.7 | 0.00 | 0.00 | 0.00 | 49 | 1002.1 |
| 20260505163132 | 74 | 219 | 9.6 | 21.7 | 0.00 | 0.00 | 0.00 | 49 | 1002.1 |
| 20260505162632 | 74 | 216 | 8.7 | 17.4 | 0.00 | 0.00 | 0.00 | 48 | 1002.0 |
| 20260505162132 | 73 | 290 | 9.6 | 25.2 | 0.00 | 0.00 | 0.00 | 49 | 1002.2 |
| 20260505161930 | 73 | 203 | 11.3 | 25.2 | 0.00 | 0.00 | 0.00 | 49 | 1002.5 |
| 20260505161133 | 73 | 274 | 12.2 | 27.8 | 0.00 | 0.00 | 0.00 | 49 | 1002.5 |
| 20260505160632 | 73 | 243 | 10.4 | 27.8 | 0.00 | 0.00 | 0.00 | 49 | 1002.5 |
| 20260505160133 | 73 | 224 | 9.6 | 20.9 | 0.00 | 0.00 | 0.00 | 48 | 1002.6 |
| 20260505153230 | 71 | 260 | 9.6 | 21.7 | 0.00 | 0.00 | 0.00 | 53 | 1002.7 |
| 20260505153209 | 72 | 238 | 7.8 | 19.1 | 0.00 | 0.00 | 0.00 | 51 | 1002.6 |
| 20260505152431 | 71 | 215 | 11.3 | 24.3 | 0.00 | 0.00 | 0.00 | 54 | 1002.8 |
| 20260505151630 | 70 | 169 | 12.2 | 24.3 | 0.00 | 0.00 | 0.00 | 53 | 1002.7 |
| 20260505151437 | 70 | 233 | 12.2 | 23.5 | 0.00 | 0.00 | 0.00 | 54 | 1002.8 |
| 20260505150631 | 70 | 213 | 11.3 | 23.5 | 0.00 | 0.00 | 0.00 | 54 | 1002.8 |
| 20260505150130 | 70 | 227 | 10.4 | 21.7 | 0.00 | 0.00 | 0.00 | 55 | 1002.8 |
| 20260505140629 | 67 | 200 | 7.8 | 17.4 | 0.00 | 0.00 | 0.00 | 58 | 1002.8 |
| 20260505140131 | 67 | 222 | 8.7 | 22.6 | 0.00 | 0.00 | 0.00 | 58 | 1002.8 |